Flag for Germany Weather past 2 weeks in Riesa, Saxony, Germany

Now
66 °F

Passing clouds.


Feels Like: 66 °F
Forecast: 51 / 78 °F
Wind: 3 mph from North

Location: Dresden-Klotzsche

Current Time: Jul 31, 2015 at 8:04:06 PM

Latest Report: Jul 31, 2015 at 7:00 PM


Visibility: 28 mi

Pressure: 30.06 "Hg

Humidity: 39%

Dew point: 41 °F

Location of RiesaLocation

Historic Weather in Riesa — Graph

°F

Riesa temperature yesterday

Maximum temperature yesterday: 67 °F (at 2:00 PM)
Minimum temperature yesterday: 53 °F (at 12:00 AM)
Average temperature yesterday: 60 °F

Past Weeks' High & Low Weather Summary

 TemperatureHumidityPressure
High92 °F (Jul 17, 6:00 PM)99% (Jul 23, 3:00 AM)30.11 "Hg (Jul 23, 3:00 AM)
Low52 °F (Jul 31, 4:00 AM)22% (Jul 17, 6:00 PM)29.59 "Hg (Jul 27, 3:00 PM)
Average69 °F61%29.87 "Hg
* Reported Jul 16 7:00 PM — Jul 31 7:00 PM, Riesa, Weather by CustomWeather, © 2015

Note: Actual official high and low records may vary slightly from our data, if they occured in-between our weather recording intervals... More about our weather records

Advertising

Riesa weather history for previous 24 hours

 ConditionsComfort  
Time TempWeatherWind HumidityBarometerVisibility
7:00 PM
Fri, Jul 31
66 °FPassing clouds.3 mph39%30.06 "Hg28 mi
6:00 PM68 °FScattered clouds.2 mph38%30.05 "Hg28 mi
4:00 PM66 °FPartly sunny.3 mph45%30.08 "Hg25 mi
3:00 PM65 °FPartly sunny.3 mph47%30.10 "Hg28 mi
2:00 PM62 °FPartly sunny.5 mph48%30.10 "Hg28 mi
1:00 PM64 °FPartly sunny.5 mph51%30.11 "Hg31 mi
12:00 PM61 °FPartly sunny.3 mph52%30.11 "Hg31 mi
10:00 AM59 °FScattered clouds.5 mph56%30.11 "Hg28 mi
9:00 AM56 °FScattered clouds.5 mph66%30.11 "Hg28 mi
8:00 AM55 °FScattered clouds.5 mph72%30.10 "Hg25 mi
7:00 AM52 °FPartly sunny.3 mph79%30.09 "Hg22 mi
4:00 AM52 °FClear.3 mph75%30.06 "Hg28 mi
3:00 AM54 °FClear.N/A71%30.04 "Hg28 mi
2:00 AM54 °FPassing clouds.2 mph69%30.04 "Hg28 mi
1:00 AM56 °FPassing clouds.5 mph64%30.03 "Hg28 mi
10:00 PM
Thu, Jul 30
60 °FPassing clouds.2 mph55%29.98 "Hg31 mi
9:00 PM61 °FPassing clouds.3 mph50%29.96 "Hg34 mi
8:00 PM65 °FScattered clouds.5 mph40%29.94 "Hg37 mi
Weather by CustomWeather, © 2015

See weather overviewHow to use our weather pages